Weather in Baykalovo

Russia / Sverdlovsk Oblast     57°23′52″N   63°45′59″E
temp.,
°C
wind,
m/s
gust,
m/s
humid.,
%
clouds,
%
prec.,
mm/h
press.,
hPa
HPBL,
m
12 may, wed
wed1223:00+15sw4535100 0.0 102572
02:00+13w464685 0.0 102586
05:00+11n378675 0.0 1027166
08:00+15nne456076 0.0 1028465
11:00+19n45395 0.0 10281313
14:00+21nnw453564 0.0 10271828
17:00+22nnw453684 0.0 10261941
20:00+19nnw224861 0.0 102623
13 may, thu
thu1323:00+16w335346 0.0 102623
02:00+14w495894 0.0 1026148
05:00+13wnw487297 0.0 1026134
08:00+18nw575781 0.0 1026351
11:00+23nw68405 0.0 10251685
14:00+26nnw793331 0.0 10242523
17:00+27nnw683112 0.0 10242629
20:00+21ne33525 0.0 102547
14 may, fri
fri1423:00+17ese33639 0.0 102630
02:00+15s33705 0.0 102727
05:00+14ssw33765 0.0 102745
08:00+20ssw46551 0.0 1027382
11:00+26sw4637100 0.0 10251420
14:00+28w5725100 0.0 10232620
17:00+28wnw4725100 0.0 10223040
20:00+24w22395 0.0 102218
15 may, sat
sat1523:00+20w48422 0.0 1022100
02:00+18w495232 0.0 1021131
05:00+17w41056100 0.0 1022155
08:00+22w574645 0.0 1021347
11:00+27w693195 0.0 10201801
14:00+30w7102489 0.0 10182923
17:00+30w7102470 0.0 10173266
20:00+25wsw49376 0.0 1016150
16 may, sun
sun1623:00+22w6143967 0.0 1016415
02:00+20nw4851100 0.0 1017198
05:00+17w376878 0.0 1017148
08:00+21nw355848 0.0 1018400
11:00+25w354426 0.0 10181082
14:00+30nw582846 0.0 10172294
17:00+31wnw572044 0.0 10162864
20:00+26w34345 0.0 101650